,,Stat5,,Stat1,,Stat2,,Stat3,,Stat4,,Wind1,,Wind1,
time,status,PA1M_AVG,status,PR1M_SUM,status,RH1M_AVG,status,SR1M_AVG,status,TA1M_AVG,status,W1dAve1m,status,W1sAve1m,
2000-12-09, 00:00:00,VALID,916.751,VALID,0,VALID,97.5715,VALID,0,VALID,18.9183,VALID,96,VALID,0,
2000-12-09, 00:01:00,VALID,916.735,VALID,0,VALID,97.663,VALID,-0.0339617,VALID,18.9439,VALID,99,VALID,0.22065,
2000-12-09, 00:02:00,VALID,916.705,VALID,0,VALID,97.8017,VALID,0,VALID,19.0023,VALID,107,VALID,0.370066,
2000-12-09, 00:03:00,VALID,916.689,VALID,0,VALID,97.5753,VALID,0,VALID,19.002,VALID,106,VALID,0.563345,
2000-12-09, 00:04:00,VALID,916.654,VALID,0,VALID,97.3324,VALID,0,VALID,18.973,VALID,95,VALID,0.602896,
2000-12-09, 00:05:00,VALID,916.649,VALID,0,VALID,97.0781,VALID,0,VALID,18.9307,VALID,94,VALID,0.561061,
2000-12-09, 00:06:00,VALID,916.648,VALID,0,VALID,97.335,VALID,0,VALID,18.9663,VALID,85,VALID,0.595536,
2000-12-09, 00:07:00,VALID,916.645,VALID,0,VALID,96.9179,VALID,0,VALID,18.9243,VALID,85,VALID,0.402644,
2000-12-09, 00:08:00,VALID,916.662,VALID,0,VALID,96.6598,VALID,-0.0169808,VALID,18.876,VALID,84,VALID,0.582682,
2000-12-09, 00:09:00,VALID,916.642,VALID,0,VALID,97.0501,VALID,0,VALID,18.8825,VALID,85,VALID,0.293497,
2000-12-09, 00:10:00,VALID,916.632,VALID,0,VALID,97.2561,VALID,-0.0169808,VALID,18.9151,VALID,86,VALID,0,
2000-12-09, 00:11:00,VALID,916.617,VALID,0,VALID,97.2053,VALID,0.0169808,VALID,18.8987,VALID,93,VALID,0,
2000-12-09, 00:12:00,VALID,916.605,VALID,0,VALID,97.5461,VALID,0.0169808,VALID,18.9208,VALID,85,VALID,0,
2000-12-09, 00:13:00,VALID,916.605,VALID,0,VALID,97.6516,VALID,0.0169808,VALID,18.9372,VALID,89,VALID,0,
2000-12-09, 00:14:00,VALID,916.604,VALID,0,VALID,97.7343,VALID,0,VALID,18.937,VALID,93,VALID,0,
2000-12-09, 00:15:00,VALID,916.608,VALID,0,VALID,97.7368,VALID,0.0169808,VALID,18.934,VALID,94,VALID,0,
2000-12-09, 00:16:00,VALID,916.596,VALID,0,VALID,97.7063,VALID,-0.0169808,VALID,18.921,VALID,97,VALID,0,
2000-12-09, 00:17:00,VALID,916.6,VALID,0,VALID,97.7749,VALID,0,VALID,18.9411,VALID,114,VALID,0,
2000-12-09, 00:18:00,VALID,916.591,VALID,0,VALID,97.766,VALID,-0.0509425,VALID,18.9377,VALID,113,VALID,0,
2000-12-09, 00:19:00,VALID,916.576,VALID,0,VALID,97.6389,VALID,0,VALID,18.9146,VALID,114,VALID,0,
2000-12-09, 00:20:00,VALID,916.541,VALID,0,VALID,97.6669,VALID,0,VALID,18.9084,VALID,119,VALID,0,
2000-12-09, 00:21:00,VALID,916.527,VALID,0,VALID,97.5435,VALID,0,VALID,18.8959,VALID,122,VALID,0,
2000-12-09, 00:22:00,VALID,916.514,VALID,0,VALID,97.457,VALID,0,VALID,18.8599,VALID,122,VALID,0,
2000-12-09, 00:23:00,VALID,916.498,VALID,0,VALID,97.2549,VALID,0,VALID,18.8285,VALID,121,VALID,0,
2000-12-09, 00:24:00,VALID,916.502,VALID,0,VALID,97.0997,VALID,-0.0169808,VALID,18.7694,VALID,121,VALID,0,
2000-12-09, 00:25:00,VALID,916.513,VALID,0,VALID,97.4977,VALID,0.0339617,VALID,18.7858,VALID,121,VALID,0,
2000-12-09, 00:26:00,VALID,916.511,VALID,0,VALID,97.7126,VALID,0,VALID,18.8218,VALID,121,VALID,0,
2000-12-09, 00:27:00,VALID,916.488,VALID,0,VALID,97.897,VALID,0,VALID,18.8631,VALID,121,VALID,0,
2000-12-09, 00:28:00,VALID,916.457,VALID,0,VALID,98,VALID,0,VALID,18.8959,VALID,121,VALID,0,
2000-12-09, 00:29:00,VALID,916.406,VALID,0,VALID,98.1501,VALID,0,VALID,18.9543,VALID,114,VALID,0,
2000-12-09, 00:30:00,VALID,916.378,VALID,0,VALID,98.1285,VALID,-0.0169808,VALID,18.9993,VALID,93,VALID,0,
2000-12-09, 00:31:00,VALID,916.359,VALID,0,VALID,97.7152,VALID,-0.0169808,VALID,18.964,VALID,101,VALID,0,
2000-12-09, 00:32:00,VALID,916.363,VALID,0,VALID,97.8271,VALID,0,VALID,18.9762,VALID,103,VALID,0.751645,
2000-12-09, 00:33:00,VALID,916.36,VALID,0,VALID,97.8474,VALID,0,VALID,18.9988,VALID,97,VALID,0.740785,
2000-12-09, 00:34:00,VALID,916.363,VALID,0,VALID,97.7317,VALID,0,VALID,18.9995,VALID,98,VALID,0.645117,
2000-12-09, 00:35:00,VALID,916.38,VALID,0,VALID,97.7037,VALID,-0.0339617,VALID,19.0189,VALID,98,VALID,0.350535,
2000-12-09, 00:36:00,VALID,916.358,VALID,0,VALID,97.6287,VALID,-0.0169808,VALID,18.9896,VALID,98,VALID,0.506373,
2000-12-09, 00:37:00,VALID,916.351,VALID,0,VALID,97.6834,VALID,-0.0169808,VALID,19.0157,VALID,99,VALID,0.51883,
2000-12-09, 00:38:00,VALID,916.325,VALID,0,VALID,97.7292,VALID,0,VALID,19.0184,VALID,103,VALID,0.530649,
2000-12-09, 00:39:00,VALID,916.312,VALID,0,VALID,97.6529,VALID,-0.0169808,VALID,19.0286,VALID,100,VALID,0.562099,
2000-12-09, 00:40:00,VALID,916.305,VALID,0,VALID,97.7088,VALID,0,VALID,19.0577,VALID,103,VALID,0.82261,
2000-12-09, 00:41:00,VALID,916.297,VALID,0,VALID,97.3884,VALID,0,VALID,19.0346,VALID,102,VALID,0.432617,
2000-12-09, 00:42:00,VALID,916.299,VALID,0,VALID,97.232,VALID,0,VALID,19.0222,VALID,103,VALID,0.279514,
2000-12-09, 00:43:00,VALID,916.301,VALID,0,VALID,97.2612,VALID,0,VALID,19.012,VALID,103,VALID,0,
2000-12-09, 00:44:00,VALID,916.308,VALID,0,VALID,97.2015,VALID,0,VALID,19.012,VALID,103,VALID,0,
2000-12-09, 00:45:00,VALID,916.308,VALID,0,VALID,97.0374,VALID,-0.0169808,VALID,18.967,VALID,103,VALID,0,
2000-12-09, 00:46:00,VALID,916.319,VALID,0,VALID,97.0667,VALID,0,VALID,18.961,VALID,103,VALID,0,
2000-12-09, 00:47:00,VALID,916.309,VALID,0,VALID,97.1633,VALID,0,VALID,18.9377,VALID,103,VALID,0,
2000-12-09, 00:48:00,VALID,916.301,VALID,0,VALID,97.1786,VALID,0,VALID,18.9081,VALID,103,VALID,0,
2000-12-09, 00:49:00,VALID,916.295,VALID,0,VALID,97.349,VALID,0,VALID,18.9245,VALID,103,VALID,0,
2000-12-09, 00:50:00,VALID,916.293,VALID,0,VALID,97.3464,VALID,0,VALID,18.9312,VALID,103,VALID,0,
2000-12-09, 00:51:00,VALID,916.3,VALID,0,VALID,97.3273,VALID,0,VALID,18.9188,VALID,103,VALID,0,
2000-12-09, 00:52:00,VALID,916.304,VALID,0,VALID,97.3795,VALID,-0.0169808,VALID,18.9051,VALID,103,VALID,0,
2000-12-09, 00:53:00,VALID,916.306,VALID,0,VALID,97.3566,VALID,-0.0169808,VALID,18.889,VALID,103,VALID,0,
2000-12-09, 00:54:00,VALID,916.296,VALID,0,VALID,97.499,VALID,-0.0339617,VALID,18.8899,VALID,103,VALID,0,
2000-12-09, 00:55:00,VALID,916.286,VALID,0,VALID,97.5664,VALID,-0.0169808,VALID,18.8991,VALID,103,VALID,0,
2000-12-09, 00:56:00,VALID,916.281,VALID,0,VALID,97.045,VALID,-0.0169808,VALID,18.8447,VALID,113,VALID,0,
2000-12-09, 00:57:00,VALID,916.252,VALID,0,VALID,96.7717,VALID,-0.0169808,VALID,18.7796,VALID,152,VALID,0,
2000-12-09, 00:58:00,VALID,916.237,VALID,0,VALID,96.6191,VALID,0,VALID,18.7406,VALID,152,VALID,0,
2000-12-09, 00:59:00,VALID,916.219,VALID,0,VALID,96.6114,VALID,-0.0339617,VALID,18.7378,VALID,152,VALID,0,
2000-12-09, 01:00:00,VALID,916.219,VALID,0,VALID,96.9802,VALID,-0.0169808,VALID,18.757,VALID,152,VALID,0,
2000-12-09, 01:01:00,VALID,916.228,VALID,0,VALID,97.1773,VALID,0,VALID,18.7766,VALID,150,VALID,0,
2000-12-09, 01:02:00,VALID,916.246,VALID,0,VALID,97.4087,VALID,-0.0169808,VALID,18.7796,VALID,150,VALID,0,
2000-12-09, 01:03:00,VALID,916.253,VALID,0,VALID,97.5308,VALID,-0.0169808,VALID,18.8027,VALID,150,VALID,0,
2000-12-09, 01:04:00,VALID,916.264,VALID,0,VALID,97.5244,VALID,-0.0169808,VALID,18.7923,VALID,150,VALID,0,
2000-12-09, 01:05:00,VALID,916.263,VALID,0,VALID,97.5168,VALID,-0.0169808,VALID,18.8022,VALID,150,VALID,0,
2000-12-09, 01:06:00,VALID,916.272,VALID,0,VALID,97.5613,VALID,0,VALID,18.8017,VALID,150,VALID,0,
2000-12-09, 01:07:00,VALID,916.268,VALID,0,VALID,97.766,VALID,0,VALID,18.8475,VALID,150,VALID,0,
2000-12-09, 01:08:00,VALID,916.269,VALID,0,VALID,97.7953,VALID,0.0169808,VALID,18.8827,VALID,150,VALID,0,
2000-12-09, 01:09:00,VALID,916.245,VALID,0,VALID,97.5422,VALID,-0.0169808,VALID,18.8735,VALID,150,VALID,0,
2000-12-09, 01:10:00,VALID,916.229,VALID,0,VALID,97.4558,VALID,-0.0169808,VALID,18.8671,VALID,150,VALID,0,
2000-12-09, 01:11:00,VALID,916.214,VALID,0,VALID,97.335,VALID,0,VALID,18.8701,VALID,150,VALID,0,
2000-12-09, 01:12:00,VALID,916.214,VALID,0,VALID,97.1048,VALID,0,VALID,18.8375,VALID,115,VALID,0.644832,
2000-12-09, 01:13:00,VALID,916.191,VALID,0,VALID,97.6452,VALID,0,VALID,18.9471,VALID,105,VALID,1.36919,
2000-12-09, 01:14:00,VALID,916.169,VALID,0,VALID,97.5028,VALID,-0.0169808,VALID,19.0385,VALID,102,VALID,1.13442,
2000-12-09, 01:15:00,VALID,916.158,VALID,0,VALID,97.2841,VALID,-0.0169808,VALID,19.0935,VALID,73,VALID,0.449219,
2000-12-09, 01:16:00,VALID,916.155,VALID,0,VALID,97.2332,VALID,-0.0339617,VALID,19.1442,VALID,12,VALID,0.367188,
2000-12-09, 01:17:00,VALID,916.157,VALID,0,VALID,97.4863,VALID,0,VALID,19.222,VALID,28,VALID,0.464627,
2000-12-09, 01:18:00,VALID,916.161,VALID,0,VALID,97.4558,VALID,0,VALID,19.3254,VALID,85,VALID,0.390191,
2000-12-09, 01:19:00,VALID,916.157,VALID,0,VALID,96.9891,VALID,0,VALID,19.3284,VALID,93,VALID,0.326686,
2000-12-09, 01:20:00,VALID,916.166,VALID,0,VALID,96.8136,VALID,-0.0169808,VALID,19.3318,VALID,94,VALID,0.328536,
2000-12-09, 01:21:00,VALID,916.177,VALID,0,VALID,96.5237,VALID,-0.0169808,VALID,19.312,VALID,93,VALID,0.133464,
2000-12-09, 01:22:00,VALID,916.163,VALID,0,VALID,96.717,VALID,0,VALID,19.3284,VALID,92,VALID,0.0151786,
2000-12-09, 01:23:00,VALID,916.142,VALID,0,VALID,96.9026,VALID,-0.0169808,VALID,19.3574,VALID,92,VALID,0,
2000-12-09, 01:24:00,VALID,916.099,VALID,0,VALID,96.9713,VALID,0,VALID,19.3868,VALID,92,VALID,0,
2000-12-09, 01:25:00,VALID,916.075,VALID,0,VALID,96.8556,VALID,-0.0169808,VALID,19.387,VALID,92,VALID,0,
2000-12-09, 01:26:00,VALID,916.059,VALID,0,VALID,96.3355,VALID,-0.0339617,VALID,19.3348,VALID,92,VALID,0,
2000-12-09, 01:27:00,VALID,916.041,VALID,0,VALID,95.7887,VALID,-0.0169808,VALID,19.2737,VALID,92,VALID,0.0370066,
2000-12-09, 01:28:00,VALID,916.045,VALID,0,VALID,95.5369,VALID,-0.0339617,VALID,19.1959,VALID,92,VALID,0.14403,
2000-12-09, 01:29:00,VALID,916.044,VALID,0,VALID,96.2477,VALID,0.0169808,VALID,19.176,VALID,92,VALID,0,
2000-12-09, 01:30:00,VALID,916.033,VALID,0,VALID,97.1646,VALID,-0.0339617,VALID,19.2635,VALID,63,VALID,0.699519,
2000-12-09, 01:31:00,VALID,916.027,VALID,0,VALID,97.3858,VALID,-0.0169808,VALID,19.3219,VALID,87,VALID,0.279642,
2000-12-09, 01:32:00,VALID,916.005,VALID,0,VALID,97.3121,VALID,-0.0169808,VALID,19.3418,VALID,97,VALID,0.483594,
2000-12-09, 01:33:00,VALID,916.005,VALID,0,VALID,97.1671,VALID,-0.0169808,VALID,19.3316,VALID,98,VALID,0.361328,
2000-12-09, 01:34:00,VALID,915.991,VALID,0,VALID,96.9471,VALID,-0.0339617,VALID,19.3025,VALID,98,VALID,0.236328,
2000-12-09, 01:35:00,VALID,915.987,VALID,0,VALID,96.9344,VALID,-0.0169808,VALID,19.2794,VALID,96,VALID,0.473818,
2000-12-09, 01:36:00,VALID,915.98,VALID,0,VALID,96.9459,VALID,0,VALID,19.2705,VALID,82,VALID,0.494038,
2000-12-09, 01:37:00,VALID,915.961,VALID,0,VALID,97.1379,VALID,-0.0169808,VALID,19.2633,VALID,77,VALID,0.355469,
2000-12-09, 01:38:00,VALID,915.94,VALID,0,VALID,97.1709,VALID,-0.0169808,VALID,19.267,VALID,79,VALID,0,
2000-12-09, 01:39:00,VALID,915.919,VALID,0,VALID,97.0743,VALID,-0.0169808,VALID,19.2312,VALID,91,VALID,0,
2000-12-09, 01:40:00,VALID,915.892,VALID,0,VALID,97.0082,VALID,0,VALID,19.1989,VALID,94,VALID,0,
2000-12-09, 01:41:00,VALID,915.864,VALID,0,VALID,97.0934,VALID,0,VALID,19.1927,VALID,95,VALID,0,
2000-12-09, 01:42:00,VALID,915.849,VALID,0,VALID,97.1061,VALID,-0.0169808,VALID,19.1537,VALID,95,VALID,0,
2000-12-09, 01:43:00,VALID,915.839,VALID,0,VALID,97.3095,VALID,0,VALID,19.1469,VALID,77,VALID,0,
2000-12-09, 01:44:00,VALID,915.819,VALID,0,VALID,97.5181,VALID,-0.0169808,VALID,19.1666,VALID,88,VALID,0,
2000-12-09, 01:45:00,VALID,915.782,VALID,0,VALID,97.5092,VALID,0,VALID,19.1504,VALID,93,VALID,0,
2000-12-09, 01:46:00,VALID,915.766,VALID,0,VALID,97.5397,VALID,0,VALID,19.1442,VALID,101,VALID,0,
2000-12-09, 01:47:00,VALID,915.738,VALID,0,VALID,97.6363,VALID,0,VALID,19.141,VALID,108,VALID,0,
2000-12-09, 01:48:00,VALID,915.733,VALID,0,VALID,97.6363,VALID,0,VALID,19.1211,VALID,118,VALID,0,
2000-12-09, 01:49:00,VALID,915.737,VALID,0,VALID,97.6147,VALID,-0.0169808,VALID,19.1216,VALID,114,VALID,0,
2000-12-09, 01:50:00,VALID,915.756,VALID,0,VALID,97.6999,VALID,-0.0169808,VALID,19.1114,VALID,111,VALID,0,
2000-12-09, 01:51:00,VALID,915.752,VALID,0,VALID,97.6198,VALID,-0.0169808,VALID,19.0987,VALID,110,VALID,0,
2000-12-09, 01:52:00,VALID,915.758,VALID,0,VALID,97.4342,VALID,-0.0169808,VALID,19.0567,VALID,103,VALID,0,
2000-12-09, 01:53:00,VALID,915.745,VALID,0,VALID,97.3172,VALID,-0.0169808,VALID,18.9981,VALID,97,VALID,0,
2000-12-09, 01:54:00,VALID,915.742,VALID,0,VALID,97.6109,VALID,0,VALID,19.005,VALID,96,VALID,0.493627,
2000-12-09, 01:55:00,VALID,915.73,VALID,0,VALID,97.8716,VALID,-0.0169808,VALID,19.0175,VALID,103,VALID,1.05764,
2000-12-09, 01:56:00,VALID,915.725,VALID,0,VALID,98.0661,VALID,0,VALID,19.0697,VALID,98,VALID,1.21267,
2000-12-09, 01:57:00,VALID,915.711,VALID,0,VALID,98.0445,VALID,0.0169808,VALID,19.0731,VALID,93,VALID,0.918708,
2000-12-09, 01:58:00,VALID,915.708,VALID,0,VALID,98.042,VALID,-0.0169808,VALID,19.0729,VALID,96,VALID,0.815789,
2000-12-09, 01:59:00,VALID,915.716,VALID,0,VALID,97.939,VALID,0,VALID,19.0401,VALID,92,VALID,0.549679,
2000-12-09, 02:00:00,VALID,915.72,VALID,0,VALID,97.8004,VALID,0,VALID,19.0011,VALID,90,VALID,0.448918,
2000-12-09, 02:01:00,VALID,915.715,VALID,0,VALID,97.9212,VALID,0,VALID,19.0113,VALID,89,VALID,0.543497,
2000-12-09, 02:02:00,VALID,915.689,VALID,0,VALID,98.0674,VALID,0,VALID,19.0341,VALID,81,VALID,0.687089,
2000-12-09, 02:03:00,VALID,915.666,VALID,0,VALID,98.1157,VALID,0,VALID,19.0505,VALID,91,VALID,0.433494,
2000-12-09, 02:04:00,VALID,915.647,VALID,0,VALID,98.0776,VALID,0,VALID,19.0306,VALID,89,VALID,0.549279,
2000-12-09, 02:05:00,VALID,915.617,VALID,0,VALID,98.1272,VALID,0,VALID,19.0438,VALID,91,VALID,0.662454,
2000-12-09, 02:06:00,VALID,915.597,VALID,0,VALID,98.0814,VALID,-0.0169808,VALID,19.0306,VALID,91,VALID,0.619243,
2000-12-09, 02:07:00,VALID,915.581,VALID,0,VALID,98.1742,VALID,-0.0169808,VALID,19.05,VALID,97,VALID,0.614443,
2000-12-09, 02:08:00,VALID,915.582,VALID,0,VALID,98.2378,VALID,-0.0169808,VALID,19.0764,VALID,105,VALID,0.507378,
2000-12-09, 02:09:00,VALID,915.584,VALID,0,VALID,98.2086,VALID,0,VALID,19.0793,VALID,112,VALID,0.624566,
2000-12-09, 02:10:00,VALID,915.577,VALID,0,VALID,98.2442,VALID,-0.0169808,VALID,19.1218,VALID,115,VALID,0.525699,
2000-12-09, 02:11:00,VALID,915.582,VALID,0,VALID,98.2874,VALID,-0.0169808,VALID,19.1539,VALID,121,VALID,0.439967,
2000-12-09, 02:12:00,VALID,915.586,VALID,0,VALID,98.2887,VALID,-0.0339617,VALID,19.1892,VALID,125,VALID,0.220703,
2000-12-09, 02:13:00,VALID,915.594,VALID,0,VALID,98.234,VALID,0,VALID,19.218,VALID,125,VALID,0.109375,
2000-12-09, 02:14:00,VALID,915.582,VALID,0,VALID,98.1246,VALID,-0.0339617,VALID,19.2242,VALID,125,VALID,0,
2000-12-09, 02:15:00,VALID,915.569,VALID,0,VALID,97.9898,VALID,0,VALID,19.2282,VALID,123,VALID,0,
2000-12-09, 02:16:00,VALID,915.544,VALID,0,VALID,97.7813,VALID,0,VALID,19.1892,VALID,110,VALID,0.171289,
2000-12-09, 02:17:00,VALID,915.534,VALID,0,VALID,97.9046,VALID,-0.0169808,VALID,19.2086,VALID,83,VALID,0.567229,
2000-12-09, 02:18:00,VALID,915.509,VALID,0,VALID,97.9352,VALID,-0.0169808,VALID,19.2444,VALID,100,VALID,0.682771,
2000-12-09, 02:19:00,VALID,915.483,VALID,0,VALID,97.8144,VALID,-0.0679233,VALID,19.2767,VALID,97,VALID,0.674479,
2000-12-09, 02:20:00,VALID,915.491,VALID,0,VALID,97.616,VALID,-0.0509425,VALID,19.2928,VALID,97,VALID,0.434295,
2000-12-09, 02:21:00,VALID,915.479,VALID,0,VALID,97.3668,VALID,-0.0339617,VALID,19.2864,VALID,90,VALID,0.442909,
2000-12-09, 02:22:00,VALID,915.483,VALID,0,VALID,97.2587,VALID,-0.0849042,VALID,19.2894,VALID,99,VALID,0.297564,
2000-12-09, 02:23:00,VALID,915.5,VALID,0,VALID,97.2358,VALID,-0.0339617,VALID,19.3127,VALID,101,VALID,0.0990234,
2000-12-09, 02:24:00,VALID,915.496,VALID,0,VALID,97.2231,VALID,-0.0679233,VALID,19.3217,VALID,101,VALID,0,
2000-12-09, 02:25:00,VALID,915.466,VALID,0,VALID,97.1099,VALID,-0.0169808,VALID,19.3281,VALID,95,VALID,0,
2000-12-09, 02:26:00,VALID,915.456,VALID,0,VALID,97.0323,VALID,-0.0169808,VALID,19.3443,VALID,77,VALID,0,
2000-12-09, 02:27:00,VALID,915.462,VALID,0,VALID,97.0387,VALID,-0.0339617,VALID,19.3438,VALID,72,VALID,0,
2000-12-09, 02:28:00,VALID,915.479,VALID,0,VALID,97.0323,VALID,-0.0509425,VALID,19.3637,VALID,72,VALID,0,
2000-12-09, 02:29:00,VALID,915.493,VALID,0,VALID,96.9573,VALID,-0.0679233,VALID,19.3766,VALID,81,VALID,0,
2000-12-09, 02:30:00,VALID,915.494,VALID,0,VALID,96.8632,VALID,-0.0509425,VALID,19.4024,VALID,95,VALID,0,
2000-12-09, 02:31:00,VALID,915.507,VALID,0,VALID,96.6992,VALID,-0.0509425,VALID,19.4082,VALID,95,VALID,0,
2000-12-09, 02:32:00,VALID,915.506,VALID,0,VALID,96.5148,VALID,-0.0509425,VALID,19.4084,VALID,95,VALID,0,
2000-12-09, 02:33:00,VALID,915.5,VALID,0,VALID,96.483,VALID,-0.0509425,VALID,19.4154,VALID,99,VALID,0,
2000-12-09, 02:34:00,VALID,915.495,VALID,0,VALID,96.5033,VALID,-0.0339617,VALID,19.4181,VALID,105,VALID,0,
2000-12-09, 02:35:00,VALID,915.478,VALID,0,VALID,96.4576,VALID,-0.0849042,VALID,19.4444,VALID,111,VALID,0,
2000-12-09, 02:36:00,VALID,915.478,VALID,0,VALID,96.3864,VALID,-0.0169808,VALID,19.4668,VALID,127,VALID,0,
2000-12-09, 02:37:00,VALID,915.482,VALID,0,VALID,96.291,VALID,0,VALID,19.4929,VALID,123,VALID,0,
2000-12-09, 02:38:00,VALID,915.482,VALID,0,VALID,96.1231,VALID,-0.0339617,VALID,19.4862,VALID,115,VALID,0,
2000-12-09, 02:39:00,VALID,915.452,VALID,0,VALID,95.9591,VALID,-0.0169808,VALID,19.4658,VALID,115,VALID,0,
2000-12-09, 02:40:00,VALID,915.434,VALID,0,VALID,95.9209,VALID,-0.0509425,VALID,19.4601,VALID,115,VALID,0,
2000-12-09, 02:41:00,VALID,915.422,VALID,0,VALID,96.0494,VALID,-0.0169808,VALID,19.441,VALID,59,VALID,0,
2000-12-09, 02:42:00,VALID,915.427,VALID,0,VALID,96.366,VALID,-0.0509425,VALID,19.4124,VALID,14,VALID,0,
2000-12-09, 02:43:00,VALID,915.433,VALID,0,VALID,96.6598,VALID,-0.0169808,VALID,19.3826,VALID,23,VALID,0,
2000-12-09, 02:44:00,VALID,915.431,VALID,0,VALID,96.7106,VALID,0,VALID,19.3788,VALID,69,VALID,0,
2000-12-09, 02:45:00,VALID,915.405,VALID,0,VALID,96.469,VALID,-0.0339617,VALID,19.3729,VALID,114,VALID,0,
2000-12-09, 02:46:00,VALID,915.401,VALID,0,VALID,96.3889,VALID,-0.0169808,VALID,19.3565,VALID,106,VALID,0,
2000-12-09, 02:47:00,VALID,915.393,VALID,0,VALID,96.3317,VALID,0,VALID,19.3376,VALID,99,VALID,0,
2000-12-09, 02:48:00,VALID,915.406,VALID,0,VALID,96.4016,VALID,0,VALID,19.3177,VALID,33,VALID,0,
2000-12-09, 02:49:00,VALID,915.414,VALID,0,VALID,96.6598,VALID,0,VALID,19.305,VALID,315,VALID,0,
2000-12-09, 02:50:00,VALID,915.412,VALID,0,VALID,96.9433,VALID,-0.0339617,VALID,19.2854,VALID,304,VALID,0,
2000-12-09, 02:51:00,VALID,915.419,VALID,0,VALID,97.1557,VALID,0,VALID,19.2566,VALID,294,VALID,0,
2000-12-09, 02:52:00,VALID,915.396,VALID,0,VALID,97.3642,VALID,-0.0339617,VALID,19.2633,VALID,290,VALID,0,
2000-12-09, 02:53:00,VALID,915.355,VALID,0,VALID,97.5244,VALID,-0.0169808,VALID,19.266,VALID,290,VALID,0,
2000-12-09, 02:54:00,VALID,915.326,VALID,0,VALID,97.5092,VALID,-0.0509425,VALID,19.2697,VALID,115,VALID,0.136218,
2000-12-09, 02:55:00,VALID,915.324,VALID,0,VALID,97.3986,VALID,-0.0169808,VALID,19.2494,VALID,92,VALID,0,
2000-12-09, 02:56:00,VALID,915.328,VALID,0,VALID,97.4024,VALID,-0.0169808,VALID,19.2337,VALID,53,VALID,0,
2000-12-09, 02:57:00,VALID,915.339,VALID,0,VALID,97.4456,VALID,0,VALID,19.2473,VALID,53,VALID,0,
2000-12-09, 02:58:00,VALID,915.328,VALID,0,VALID,97.4825,VALID,0,VALID,19.2508,VALID,53,VALID,0,
2000-12-09, 02:59:00,VALID,915.316,VALID,0,VALID,97.4914,VALID,-0.0339617,VALID,19.2469,VALID,53,VALID,0,
2000-12-09, 03:00:00,VALID,915.308,VALID,0,VALID,97.466,VALID,0,VALID,19.2431,VALID,160,VALID,0,
2000-12-09, 03:01:00,VALID,915.319,VALID,0,VALID,97.4494,VALID,0,VALID,19.2469,VALID,173,VALID,0,
2000-12-09, 03:02:00,VALID,915.321,VALID,0,VALID,97.4431,VALID,-0.0509425,VALID,19.2528,VALID,173,VALID,0,
2000-12-09, 03:03:00,VALID,915.313,VALID,0,VALID,97.2879,VALID,-0.0339617,VALID,19.2506,VALID,173,VALID,0,
2000-12-09, 03:04:00,VALID,915.303,VALID,0,VALID,97.0654,VALID,0,VALID,19.2111,VALID,173,VALID,0,
2000-12-09, 03:05:00,VALID,915.294,VALID,0,VALID,96.97,VALID,0,VALID,19.182,VALID,171,VALID,0,
2000-12-09, 03:06:00,VALID,915.276,VALID,0,VALID,97.0209,VALID,-0.0339617,VALID,19.1726,VALID,171,VALID,0,
2000-12-09, 03:07:00,VALID,915.254,VALID,0,VALID,97.1328,VALID,0,VALID,19.179,VALID,171,VALID,0,
2000-12-09, 03:08:00,VALID,915.251,VALID,0,VALID,97.2015,VALID,0,VALID,19.1954,VALID,157,VALID,0,
2000-12-09, 03:09:00,VALID,915.246,VALID,0,VALID,97.0272,VALID,0,VALID,19.1855,VALID,138,VALID,0,
2000-12-09, 03:10:00,VALID,915.229,VALID,0,VALID,97.1188,VALID,-0.0169808,VALID,19.1922,VALID,71,VALID,0,
2000-12-09, 03:11:00,VALID,915.218,VALID,0,VALID,97.265,VALID,-0.0169808,VALID,19.2496,VALID,91,VALID,0,
2000-12-09, 03:12:00,VALID,915.223,VALID,0,VALID,97.073,VALID,0,VALID,19.3147,VALID,111,VALID,0,
2000-12-09, 03:13:00,VALID,915.22,VALID,0,VALID,96.9242,VALID,-0.0509425,VALID,19.3376,VALID,150,VALID,0,
2000-12-09, 03:14:00,VALID,915.215,VALID,0,VALID,96.7513,VALID,0,VALID,19.3373,VALID,211,VALID,0.0884766,
2000-12-09, 03:15:00,VALID,915.2,VALID,0,VALID,96.6928,VALID,-0.0339617,VALID,19.3339,VALID,227,VALID,0.311198,
2000-12-09, 03:16:00,VALID,915.199,VALID,0,VALID,96.6788,VALID,-0.0169808,VALID,19.3274,VALID,236,VALID,0.0991753,
2000-12-09, 03:17:00,VALID,915.18,VALID,0,VALID,96.7805,VALID,-0.0339617,VALID,19.3505,VALID,37,VALID,0.29772,
2000-12-09, 03:18:00,VALID,915.169,VALID,0,VALID,96.7132,VALID,0,VALID,19.3821,VALID,98,VALID,0.0865543,
2000-12-09, 03:19:00,VALID,915.171,VALID,0,VALID,96.525,VALID,-0.0509425,VALID,19.4223,VALID,98,VALID,0.117839,
2000-12-09, 03:20:00,VALID,915.188,VALID,0,VALID,96.427,VALID,-0.0339617,VALID,19.4576,VALID,95,VALID,0.236275,
2000-12-09, 03:21:00,VALID,915.171,VALID,0,VALID,96.1015,VALID,-0.0679233,VALID,19.4837,VALID,94,VALID,0.280382,
2000-12-09, 03:22:00,VALID,915.159,VALID,0,VALID,95.8536,VALID,-0.0169808,VALID,19.4703,VALID,93,VALID,0,
2000-12-09, 03:23:00,VALID,915.124,VALID,0,VALID,95.8383,VALID,-0.0169808,VALID,19.4444,VALID,93,VALID,0,
2000-12-09, 03:24:00,VALID,915.132,VALID,0,VALID,95.9362,VALID,-0.0679233,VALID,19.4255,VALID,93,VALID,0,
2000-12-09, 03:25:00,VALID,915.106,VALID,0,VALID,96.0189,VALID,-0.0339617,VALID,19.4226,VALID,97,VALID,0,
2000-12-09, 03:26:00,VALID,915.095,VALID,0,VALID,95.9553,VALID,-0.0339617,VALID,19.396,VALID,85,VALID,0,
2000-12-09, 03:27:00,VALID,915.091,VALID,0,VALID,95.9515,VALID,-0.0509425,VALID,19.3999,VALID,85,VALID,0,
2000-12-09, 03:28:00,VALID,915.093,VALID,0,VALID,95.9197,VALID,-0.0339617,VALID,19.3835,VALID,85,VALID,0,
2000-12-09, 03:29:00,VALID,915.092,VALID,0,VALID,95.8981,VALID,-0.0679233,VALID,19.3671,VALID,84,VALID,0,
2000-12-09, 03:30:00,VALID,915.095,VALID,0,VALID,95.8675,VALID,-0.0679233,VALID,19.3545,VALID,84,VALID,0,
2000-12-09, 03:31:00,VALID,915.105,VALID,0,VALID,95.734,VALID,-0.0509425,VALID,19.306,VALID,84,VALID,0,
2000-12-09, 03:32:00,VALID,915.11,VALID,0,VALID,95.762,VALID,-0.0849042,VALID,19.2575,VALID,84,VALID,0,
2000-12-09, 03:33:00,VALID,915.136,VALID,0,VALID,95.8968,VALID,-0.0509425,VALID,19.2185,VALID,84,VALID,0,
2000-12-09, 03:34:00,VALID,915.15,VALID,0,VALID,96.0786,VALID,-0.0509425,VALID,19.1994,VALID,83,VALID,0,
2000-12-09, 03:35:00,VALID,915.163,VALID,0,VALID,96.2694,VALID,-0.0509425,VALID,19.1837,VALID,79,VALID,0,
2000-12-09, 03:36:00,VALID,915.18,VALID,0,VALID,95.9311,VALID,-0.0509425,VALID,19.1285,VALID,84,VALID,0,
2000-12-09, 03:37:00,VALID,915.169,VALID,0,VALID,96.0812,VALID,-0.101885,VALID,19.0609,VALID,85,VALID,0,
2000-12-09, 03:38:00,VALID,915.161,VALID,0,VALID,96.3686,VALID,-0.0679233,VALID,19.015,VALID,89,VALID,0.442274,
2000-12-09, 03:39:00,VALID,915.154,VALID,0,VALID,96.6941,VALID,-0.0849042,VALID,19.018,VALID,81,VALID,0.842272,
2000-12-09, 03:40:00,VALID,915.151,VALID,0,VALID,96.8568,VALID,-0.0849042,VALID,19.051,VALID,62,VALID,0.675576,
2000-12-09, 03:41:00,VALID,915.166,VALID,0,VALID,97.0997,VALID,-0.0509425,VALID,19.1059,VALID,64,VALID,0.476963,
2000-12-09, 03:42:00,VALID,915.173,VALID,0,VALID,97.1786,VALID,-0.0679233,VALID,19.1479,VALID,49,VALID,0.476563,
2000-12-09, 03:43:00,VALID,915.184,VALID,0,VALID,97.0705,VALID,-0.101885,VALID,19.2066,VALID,36,VALID,0.445735,